Regional Weather Roundup
Issued by NWS Wakefield, VA

Home | Current Version | Previous Version | Graphics & Text | Print | Product List | Glossary On
Versions: 1 2 3 4 5 6 7 8 9 10 11 12 13 14 15 16 17 18 19 20 21 22 23 24 25 26 27 28 29 30 31 32 33 34 35 36 37 38 39 40 41 42 43 44 45 46 47 48 49 50
000
ASUS41 KAKQ 251914
RWRAKQ

REGIONAL WEATHER ROUNDUP
NATIONAL WEATHER SERVICE WAKEFIELD VA
300 PM EDT MON MAY 25 2015

Note: "fair" indicates few or no clouds below 12,000 feet with no
significant weather and/or obstructions to visibility. * = Denotes
station may not report precipitation (e.g., rain,snow,etc.),
thunder or fog.

VAZ042-051-052>054-056-252000-
NORTHERN VIRGINIA

CITY           SKY/WX    TMP DP  RH WIND       PRES   REMARKS
WASH NATIONAL  PTSUNNY   85  61  44 S13G24    30.22F
DULLES         PTSUNNY   82  60  47 S13G26    30.21F
FORT BELVOIR   MOSUNNY   82  59  45 S9G20     30.22F
QUANTICO       MOSUNNY   80  60  50 S18       30.23F
FREDERICKSBRG* MOSUNNY   85  60  42 SW12G25   30.23F
STAFFORD*      MOSUNNY   83  55  37 S9G17     30.27F
WARRENTON      MOSUNNY   83  63  49 S14G22    30.22F
CULPEPER*      MOSUNNY   82  58  45 SW14G21   30.22F
MANASSAS*      SUNNY     82  61  47 S17G23    30.22F
LEESBURG*      MOSUNNY   86  61  42 S20G31    30.21F
WINCHESTER     MOSUNNY   86  43  22 SW9G20    30.19F
FRONT ROYAL*   FAIR      82  59  44 SW5       30.18F
LURAY*         FAIR      86  61  42 S12       30.21F
$$

VAZ048-049-060>072-079>083-252000-
CENTRAL AND SOUTH CENTRAL VIRGINIA

CITY           SKY/WX    TMP DP  RH WIND       PRES   REMARKS
RICHMOND       MOSUNNY   84  58  40 SW16G22   30.26F
CHESTERFIELD*  NOT AVBL
PETERSBURG*    SUNNY     83  53  35 S9G17     30.27F
HANOVER        MOSUNNY   82  57  42 S12G21    30.26F
TAPPAHANNOCK*  MOSUNNY   84  51  31 S12G17    30.26F
QUINTON*       FAIR      82  58  45 S6        30.26F
CHARLOTTSVILLE SUNNY     82  57  42 S15G24    30.23F
GORDONSVILLE*  FAIR      82  59  45 SW15G21   30.23F
ORANGE*        SUNNY     82  59  44 S9G22     30.25F
LOUISA*        MOSUNNY   82  59  44 S9G20     30.24F
BUMPASS*       FAIR      80  59  47 SW10      30.25F
FARMVILLE*     MOSUNNY   82  56  39 S14       30.25F
CREWE*         FAIR      82  57  42 S8        30.26F
FORT PICKETT*  FAIR      82  57  42 SW13      30.27F
CHASE CITY*    FAIR      83  58  42 S8        30.28F
CLARKSVILLE*   FAIR      81  55  41 S8        30.27F
SOUTH HILL*    SUNNY     81  56  43 CALM      30.34F
LAWRENCEVILLE* FAIR      81  57  44 S8        30.27F
EMPORIA*       SUNNY     81  55  41 S7        30.29F
$$

VAZ088>098-252000-
SOUTHEAST VIRGINIA

CITY           SKY/WX    TMP DP  RH WIND       PRES   REMARKS
NORFOLK        SUNNY     84  53  34 S16       30.29F
VIRGINIA BEACH MOSUNNY   82  62  50 SE14      30.29F
NORFOLK NAVAL  MOSUNNY   87  54  32 S8G17     30.29F
WEST POINT*    SUNNY     85  51  29 S9        30.28F
SALUDA*        FAIR      82  59  45 S13G20    30.27F
NEWPORT NEWS   SUNNY     87  58  37 S16       30.28F
LANGLEY AFB    MOSUNNY   82  58  43 S10       30.27F
FORT EUSTIS    SUNNY     82  60  47 S8        30.26F
WILLIAMSBURG*  SUNNY     88  59  37 S10G17    30.28F
HR EXEC AP*    FAIR      84  57  39 S8G18     30.30F
FRANKLIN*      SUNNY     83  56  40 S9        30.29F
WAKEFIELD      SUNNY     83  58  42 S10       30.28F
$$

VAZ020-022-025-037-045-252000-
WEST CENTRAL AND SOUTHWEST VIRGINIA

CITY           SKY/WX    TMP DP  RH WIND       PRES   REMARKS
STAUNTON*      SUNNY     83  55  38 SW14      30.26F
WAYNESBORO*    MOCLDY    79  59  49 S13       30.26F
HOT SPRINGS VA PTSUNNY   69  56  62 S8        30.34F
LYNCHBURG      SUNNY     80  54  40 S14G20    30.27F
DANVILLE       SUNNY     82  55  39 S7        30.28F
SOUTH BOSTON*  FAIR      82  51  33 S12       30.27F
MARTINSVILLE   SUNNY     82  54  38 S6        30.31F
ROANOKE        MOSUNNY   81  57  43 S15       30.27F
BLACKSBURG     MOSUNNY   74  56  52 S8        30.33F
DUBLIN*        SUNNY     78  58  49 SE9       30.31F
MARION*        PTSUNNY   80  57  45 E6        30.31S
HILLSVILLE*    MOSUNNY   73  58  60 S9        30.34F
RICHLANDS*     FAIR      79  55  44 SW7       30.29F
WISE*          MOSUNNY   81  52  36 W8        30.29F
ABINGDON*      SUNNY     83  49  31 W3        30.26F
$$

MDZ021>025-VAZ099-100-252000-
SOUTHERN MARYLAND AND THE DELMARVA PENINSULA

CITY           SKY/WX    TMP DP  RH WIND       PRES   REMARKS
PATUXENT RIVER MOSUNNY   78  63  59 SE16      30.25F
BAY BRIDGE APT   N/A    N/A N/A N/A S13G24    30.23F
LEONARDTOWN    MOSUNNY   81  55  41 S10G17    30.26F
DOVER          MOSUNNY   83  61  47 S18G24    30.22F
GEORGETOWN     SUNNY     81  57  43 S21       30.27F
EASTON         MOSUNNY   84  59  42 SW14      30.28F
CAMBRIDGE      MOSUNNY   79  59  50 S12G20    30.26F
SALISBURY      SUNNY     80  56  43 S16G24    30.27F
OCEAN CITY     SUNNY     72  62  71 S8G18     30.30F
WALLOPS ISLAND SUNNY     75  63  66 S16       30.31F
ACCOMACK*      SUNNY     79  64  61 S12       30.30F
$$

NCZ012>017-030>032-252000-
NORTH CENTRAL AND EASTERN NORTH CAROLINA

CITY           SKY/WX    TMP DP  RH WIND       PRES   REMARKS
ROANOKE RAPIDS FAIR      81  55  41 S8G16     30.28F
RALEIGH        MOSUNNY   83  58  42 SW8       30.29F
ELIZABETH CITY SUNNY     79  61  53 E13       30.31F
AHOSKIE*       SUNNY     81  56  43 S10G16    30.29F
EDENTON*         N/A     82  60  47 S10G16    30.31F
CURRITUCK*     NOT AVBL
KILL DEVIL HLS SUNNY     78  57  49 SE8       30.32F
MANTEO         SUNNY     76  59  56 S12       30.33F
CAPE HATTERAS  SUNNY     78  57  48 S9        30.34F
TARBORO*       FAIR      84  55  37 S7        30.29F
GOLDSBORO      SUNNY     84  58  40 VRB3      30.26F
WASHINGTON     SUNNY     82  56  41 S7        30.31F
GREENVILLE     SUNNY     82  55  39 SW8G16    30.30F
NEW BERN       SUNNY     82  54  37 S10       30.33F
WILMINGTON     MOSUNNY   79  61  53 SE7       30.31F
$$

VAZ048-252000-
ELSEWHERE

CITY           SKY/WX    TMP DP  RH WIND       PRES   REMARKS
HARRISBURG PA  PTSUNNY   83  56  39 SW8       30.17F
BALTIMORE      PTSUNNY   82  57  42 S13G22    30.21F
ANNAPOLIS      MOSUNNY   79  61  53 S13       30.22F
ANDREWS AFB    MOSUNNY   81  60  49 S18G25    30.22F
PHILADELPHIA   PTSUNNY   86  55  34 SW17G28   30.21F
HENDERSON NC   SUNNY     82  50  33 S12G18    30.29S
GREENSBORO     MOSUNNY   80  55  42 S6G20     30.28F
ROCKY MOUNT    SUNNY     84  55  36 S10       30.28F
$$

VAZ100-252000-
MARINE

STATION/POSITION TIME  TEMP    WIND        PRES    WAVE   SWELL
                       AIR SEA DIR/SP/G            HT/PER HT/PER
                 (UTC) (F)     (DEG/KT/KT) (MB)    (FT/S) (FT/S)
BRANDYWINE LGT   1800   74 65  220/ 18/ 19 1025.1F
CAPE MAY NJ      1800   72 69  150/ 11/ 13 1025.0F
LEWES DE         1800   81 64  220/ 11/ 18 1025.0F
15NM E FENWICK I 1850   63 61              1025.7F   3/ 4
OCEAN-CITY-INLET 1800   65 62  200/ 13/ 17 1026.1F
WACHAPREAGUE VA  1800   74 72  180/ 11/ 14 1026.7F
THOMAS POINT MD  1900   72 67  170/ 18/ 20 1024.1F
GOOSES REEF MD   1900   70 67  170/ 16/ 19 1025.1F   2/ 3
SOLOMONS ISLAND  1800      69                N/A
BISHOPS HEAD MD  1800   71 76  150/ 15/ 17 1025.4F
PINEY POINT MD   1800          210/ 12/ 15   N/A
CAMBRIDGE MD     1800   80 70  200/ 11/ 17 1024.9F
LEWISETTA VA     1800   78 72              1024.9F
RAPPAHANNOCK LGT 1800          170/ 12/ 13 1026.9F
STINGRAY PT      1900   72 71  160/ 16/ 17 1025.3F   2/ 2
YORK RVR RNG VA  1800   71     130/ 12/ 14 1025.7F
YORKTOWN VA      1800   79 71  180/ 11/ 16 1025.7F
JAMESTOWN VA     1900   79 74  210/ 10/ 16 1024.1F
DOMINION TERM VA 1800   78     210/  8/ 10 1026.2F
KIPTOPEKE VA     1800      75  160/ 14/ 17   N/A
CHES BAY BRIDGE  1800   79 69  160/ 12/ 15 1025.9F
CAPE HENRY VA    1800   73     140/ 17/ 23 1025.4F
CHESAPEAKE LGHT  1800   69     160/ 19/ 20 1027.4F
WILLOUBY STN VA  1800   79     190/ 12/ 16 1026.8F
CAPE HENRY BUOY  1828      67                N/A     2/ 3
1ST LANDING BUOY 1900      70              1025.5F
CAPE CHARLES BUO 1826      67                N/A     2/ 3   2/ 8
OFFSHORE WE BUOY 1811      65                N/A     1/ 8   2/ 8
64NM E OF VA BCH 1850   67 63  170/  6/  6 1027.5F   1/ 8   2/ 8
DUCK PIER NC     1800   70 63  130/ 15/ 16 1026.4F
44100 DUCK FRF   1824      66                N/A     1/ 8
44056 DUCK FRF   1811      66                N/A     1/ 9
OREGON INLET NC  1800   74 74  180/ 10/ 13 1028.0F
HATTERAS NC      1800   76 75  160/  7/  9 1027.6F
DIAMOND SHLS NC  1850   74 78  170/ 10/ 14 1027.6F   2/ 8   2/ 8
CAPE LOOKOUT NC  1900   74     130/ 10/ 10 1026.8F
$$


USA.gov is the U.S. government's official web portal to all federal, state and local government web resources and services.